KM8N Weather Reports


time (UTC)temp
C
wind
direction
speed
KPH
gust
KPH
rain 1hr
cm
rain 24hr
cm
rain mn
cm
humidity
%
barometer
mb
20260509000355 13 209 0.0 0.0 0.00 0.00 0.00 88 1010.4
20260508235340 13 209 0.0 0.0 0.00 0.00 0.00 88 1010.4
20260508234323 13 209 0.0 0.0 0.00 0.00 0.00 87 1010.5
20260508233351 13 209 0.0 0.0 0.00 0.00 0.00 85 1010.4
20260508232314 14 209 0.0 0.0 0.00 0.00 0.00 84 1010.5
20260508231320 14 209 0.0 0.0 0.00 0.00 0.00 82 1010.5
20260508230327 15 209 0.0 0.0 0.00 0.00 0.00 79 1010.3
20260508225332 15 209 0.0 0.0 0.00 0.00 0.00 77 1010.2
20260508224320 15 209 0.0 0.0 0.00 0.00 0.00 73 1010.3
20260508223324 16 209 0.0 0.0 0.00 0.00 0.00 71 1010.1
20260508222349 16 209 0.0 0.0 0.00 0.00 0.00 65 1010.3
20260508221333 17 209 0.0 0.0 0.00 0.00 0.00 68 1010.3
20260508220339 17 209 0.0 0.0 0.00 0.00 0.00 62 1010.3
20260508215324 17 209 0.0 0.0 0.00 0.00 0.00 57 1010.1
20260508214329 18 210 0.0 1.6 0.00 0.00 0.00 58 1010.2
20260508213319 18 209 0.0 0.0 0.00 0.00 0.00 51 1010.1
20260508212325 18 209 0.0 1.6 0.00 0.00 0.00 48 1010.2
20260508211331 18 249 1.6 3.2 0.00 0.00 0.00 46 1010.2
20260508210316 18 240 0.0 3.2 0.00 0.00 0.00 46 1010.4
20260508205320 19 242 3.2 6.4 0.00 0.00 0.00 45 1010.6
20260508204343 19 264 3.2 9.7 0.00 0.00 0.00 44 1010.7
20260508203328 19 247 4.8 11.3 0.00 0.00 0.00 44 1010.8
20260508202317 19 236 3.2 11.3 0.00 0.00 0.00 44 1010.9
20260508201321 19 229 4.8 12.9 0.00 0.00 0.00 43 1011.0
20260508200325 19 223 8.0 16.1 0.00 0.00 0.00 43 1011.0
20260508195328 19 214 3.2 9.7 0.00 0.00 0.00 44 1011.1
20260508194314 19 225 4.8 9.7 0.00 0.00 0.00 43 1011.2
20260508193341 19 263 4.8 9.7 0.00 0.00 0.00 45 1011.2
20260508192325 20 6 3.2 9.7 0.00 0.00 0.00 44 1011.4
20260508191350 20 220 3.2 9.7 0.00 0.00 0.00 45 1011.5
20260508190335 20 259 6.4 16.1 0.00 0.00 0.00 43 1011.6
20260508185323 20 210 4.8 11.3 0.00 0.00 0.00 44 1011.9
20260508184329 20 237 4.8 20.9 0.00 0.00 0.00 46 1012.1
20260508183317 20 233 4.8 14.5 0.00 0.00 0.00 46 1012.0
20260508182321 19 255 8.0 16.1 0.00 0.00 0.00 45 1012.2
20260508181327 19 245 11.3 16.1 0.00 0.00 0.00 45 1012.3
20260508180333 19 195 6.4 20.9 0.00 0.00 0.00 46 1012.6
20260508175317 19 207 6.4 14.5 0.00 0.00 0.00 46 1012.9
20260508174325 19 238 8.0 14.5 0.00 0.00 0.00 46 1012.9
20260508173327 18 248 6.4 19.3 0.00 0.00 0.00 47 1013.0
20260508172332 18 236 8.0 19.3 0.00 0.00 0.00 46 1013.1
20260508171316 18 240 8.0 22.5 0.00 0.00 0.00 45 1013.3
20260508170322 19 241 6.4 16.1 0.00 0.00 0.00 45 1013.3
20260508165326 19 220 9.7 24.1 0.00 0.00 0.00 45 1013.6
20260508164331 18 194 9.7 20.9 0.00 0.00 0.00 45 1013.8
20260508163316 18 192 9.7 19.3 0.00 0.00 0.00 47 1013.9
20260508162320 18 226 4.8 17.7 0.00 0.00 0.00 49 1013.9
20260508161324 18 211 6.4 22.5 0.00 0.00 0.00 49 1014.0
20260508160317 18 254 9.7 24.1 0.00 0.00 0.00 47 1014.1
20260508155322 18 242 11.3 20.9 0.00 0.00 0.00 45 1014.2
20260508154348 18 252 9.7 19.3 0.00 0.00 0.00 47 1014.2
20260508153352 18 240 12.9 20.9 0.00 0.00 0.00 46 1014.4
20260508152317 17 207 6.4 12.9 0.00 0.00 0.00 51 1014.4
20260508151320 17 241 8.0 17.7 0.00 0.00 0.00 51 1014.4
20260508150326 16 210 6.4 12.9 0.00 0.00 0.00 53 1014.6
20260508145315 16 195 8.0 16.1 0.00 0.00 0.00 55 1014.6
20260508144321 15 222 4.8 9.7 0.00 0.00 0.00 57 1014.8
20260508143327 15 229 3.2 16.1 0.00 0.00 0.00 56 1014.9
20260508142332 15 199 6.4 11.3 0.00 0.00 0.00 56 1014.9
20260508141319 14 247 6.4 12.9 0.00 0.00 0.00 55 1015.1
20260508140405 13 214 6.4 14.5 0.00 0.00 0.00 56 1015.2
20260508135326 13 226 4.8 14.5 0.00 0.00 0.00 56 1015.2
20260508134329 13 244 6.4 12.9 0.00 0.00 0.00 54 1015.3
20260508133319 13 274 4.8 9.7 0.00 0.00 0.00 58 1015.3
20260508132343 13 266 3.2 9.7 0.00 0.00 0.00 59 1015.1
20260508131327 12 228 6.4 16.1 0.00 0.00 0.00 59 1015.1
20260508130313 12 26 4.8 11.3 0.00 0.00 0.00 61 1015.1
20260508125319 12 226 6.4 12.9 0.00 0.00 0.00 62 1015.1
20260508124322 11 210 3.2 6.4 0.00 0.00 0.00 68 1015.1
20260508123328 10 230 1.6 4.8 0.00 0.00 0.00 73 1015.1
20260508122333 9 133 1.6 4.8 0.00 0.00 0.00 76 1015.1
20260508121341 8 210 0.0 3.2 0.00 0.00 0.00 84 1015.1
20260508120328 7 200 0.0 1.6 0.00 0.00 0.00 93 1015.2
20260508115314 7 217 0.0 0.0 0.00 0.00 0.00 96 1014.9
20260508114319 6 217 0.0 0.0 0.00 0.00 0.00 96 1014.9
20260508113345 6 217 0.0 0.0 0.00 0.00 0.00 96 1014.9
20260508112328 6 217 0.0 0.0 0.00 0.00 0.00 96 1014.7
20260508111352 6 217 0.0 0.0 0.00 0.00 0.00 96 1014.8
20260508110317 6 217 0.0 0.0 0.00 0.00 0.00 96 1014.7
20260508105321 5 217 0.0 0.0 0.00 0.00 0.00 96 1014.6
20260508104348 5 217 0.0 0.0 0.00 0.00 0.00 96 1014.5
20260508103338 5 217 0.0 0.0 0.00 0.00 0.00 96 1014.4
20260508102320 5 217 0.0 0.0 0.00 0.00 0.00 96 1014.5
20260508101344 5 217 0.0 0.0 0.00 0.00 0.00 96 1014.6
20260508100328 5 217 0.0 0.0 0.00 0.00 0.00 96 1014.6
20260508095352 4 217 0.0 0.0 0.00 0.00 0.00 96 1014.6
20260508094318 4 217 0.0 0.0 0.00 0.00 0.00 95 1014.6
20260508093323 4 217 0.0 0.0 0.00 0.00 0.00 95 1014.6
20260508092328 4 217 0.0 0.0 0.00 0.00 0.00 95 1014.8
20260508091314 4 217 0.0 0.0 0.00 0.00 0.00 95 1014.7
20260508090319 4 217 0.0 0.0 0.00 0.00 0.00 95 1014.7
20260508085326 4 217 0.0 0.0 0.00 0.00 0.00 95 1014.8
20260508084332 4 217 0.0 0.0 0.00 0.00 0.00 95 1014.7
20260508083319 4 217 0.0 0.0 0.00 0.00 0.00 95 1014.7
20260508082324 3 217 0.0 0.0 0.00 0.00 0.00 95 1014.7
20260508081329 3 217 0.0 0.0 0.00 0.00 0.00 95 1014.6
20260508080333 3 217 0.0 0.0 0.00 0.00 0.00 94 1014.6
20260508075321 4 217 0.0 0.0 0.00 0.00 0.00 95 1014.5
20260508074347 3 217 0.0 0.0 0.00 0.00 0.00 94 1014.6
20260508073331 4 217 0.0 0.0 0.00 0.00 0.00 94 1014.6
20260508072315 4 217 0.0 0.0 0.00 0.00 0.00 95 1014.6
20260508071339 4 217 0.0 0.0 0.00 0.00 0.00 94 1014.7
20260508070326 4 217 0.0 0.0 0.00 0.00 0.00 94 1014.8
20260508065332 4 217 0.0 0.0 0.00 0.00 0.00 94 1014.8
20260508064319 4 217 0.0 0.0 0.00 0.00 0.00 94 1014.9
20260508063346 4 217 0.0 0.0 0.00 0.00 0.00 94 1015.1
20260508062331 5 217 0.0 0.0 0.00 0.00 0.00 94 1015.1
20260508061315 4 217 0.0 0.0 0.00 0.00 0.00 94 1015.1
20260508060321 5 217 0.0 0.0 0.00 0.00 0.00 93 1015.2
20260508055325 5 217 0.0 0.0 0.00 0.00 0.00 93 1015.2
20260508054327 5 217 0.0 0.0 0.00 0.00 0.00 93 1015.2
20260508053333 5 225 0.0 0.0 0.00 0.00 0.00 93 1015.3
20260508052322 5 225 0.0 0.0 0.00 0.00 0.00 93 1015.3
20260508051328 5 225 0.0 0.0 0.00 0.00 0.00 93 1015.2
20260508050352 6 225 0.0 0.0 0.00 0.00 0.00 93 1015.2
20260508045316 5 225 0.0 0.0 0.00 0.00 0.00 93 1015.2
20260508044320 6 225 0.0 0.0 0.00 0.00 0.00 92 1015.2
20260508043326 6 225 0.0 0.0 0.00 0.00 0.00 93 1015.1
20260508042332 6 224 0.0 0.0 0.00 0.00 0.00 91 1015.0
20260508041321 6 225 0.0 0.0 0.00 0.00 0.00 91 1015.0
20260508040326 6 225 0.0 0.0 0.00 0.00 0.00 91 1015.0
20260508035351 6 225 0.0 0.0 0.00 0.00 0.00 90 1014.9
20260508034314 6 225 0.0 0.0 0.00 0.00 0.00 90 1015.0
20260508033320 6 224 0.0 0.0 0.00 0.00 0.00 89 1015.0
20260508032324 7 225 0.0 0.0 0.00 0.00 0.00 89 1014.8
20260508031328 7 225 0.0 0.0 0.00 0.00 0.00 87 1015.1
20260508030332 7 225 0.0 0.0 0.00 0.00 0.00 87 1014.9
20260508025314 7 225 0.0 0.0 0.00 0.00 0.00 87 1014.9
20260508024320 7 225 0.0 0.0 0.00 0.00 0.00 86 1014.8
20260508023327 7 225 0.0 0.0 0.00 0.00 0.00 86 1014.7
20260508022353 7 225 0.0 0.0 0.00 0.00 0.00 86 1014.8
20260508021318 7 225 0.0 0.0 0.00 0.00 0.00 84 1014.7
20260508020322 7 224 0.0 0.0 0.00 0.00 0.00 82 1014.7
20260508015326 8 225 0.0 0.0 0.00 0.00 0.00 81 1014.8
20260508014328 8 224 0.0 0.0 0.00 0.00 0.00 79 1014.7
20260508013355 8 224 0.0 0.0 0.00 0.00 0.00 77 1014.7
20260508012320 8 225 0.0 0.0 0.00 0.00 0.00 75 1014.7
20260508011325 9 225 0.0 0.0 0.00 0.00 0.00 71 1014.7
20260508010317 10 224 0.0 0.0 0.00 0.00 0.00 69 1014.7
20260508005322 10 225 0.0 0.0 0.00 0.00 0.00 64 1014.7
20260508004328 11 225 0.0 0.0 0.00 0.00 0.00 62 1014.7
20260508003315 12 225 0.0 0.0 0.00 0.00 0.00 56 1014.6
20260508002341 12 224 0.0 0.0 0.00 0.00 0.00 55 1014.5
20260508001324 13 225 0.0 3.2 0.00 0.00 0.00 47 1014.5